Regional Weather Roundup
Issued by NWS San Diego, CA

Home | Current Version | Previous Version | Text Only | Print | Product List | Glossary On
Versions: 1 2 3 4 5 6 7 8 9 10 11 12 13 14 15 16 17 18 19 20 21 22 23 24 25 26 27 28 29 30 31 32 33 34 35 36 37 38 39 40 41 42 43 44 45 46 47 48 49 50
000
ASUS46 KSGX 210610
RWRSGX

SAN DIEGO HOURLY WEATHER ROUNDUP
NATIONAL WEATHER SERVICE SAN DIEGO CA
1100 PM PDT MON OCT 20 2014

NOTE: "FAIR" INDICATES FEW OR NO CLOUDS BELOW 12,000 FEET WITH NO
SIGNIFICANT WEATHER AND/OR OBSTRUCTIONS TO VISIBILITY.

CAZ042-043-060-061-PZZ750-775-210700-

GREATER SAN DIEGO AREA

CITY           SKY/WX    TMP DP  RH WIND       PRES   REMARKS
LINDBERGH FLD  CLOUDY    69  61  75 CALM      29.93S
POINT LOMA       N/A     67  61  81 NW2         N/A
NATIONAL CITY    N/A     68  63  83 N2        29.92F
CHULA VISTA      N/A     67  63  86 CALM      29.86S
IMPERIAL BEACH MOCLDY    69  63  81 NW5       29.92F
BROWN FIELD    CLOUDY    66  60  81 NW3       29.92F
MIRAMAR MCAS   CLOUDY    68  60  75 NW3       29.92F
MONTGOMERY FLD CLOUDY    68  61  78 CALM      29.92F

$$

NORTH SAN DIEGO COUNTY

CITY           SKY/WX    TMP DP  RH WIND       PRES   REMARKS
CAMP PENDLETON MOCLDY    68  60  75 E5          N/A
OCEANSIDE AP   CLOUDY    69  61  75 CALM      29.91S
OCEANSIDE HBR    N/A     69  64  85 NE2       29.94S
VISTA            N/A     67  62  84 CALM      29.90F
CARLSBAD       CLOUDY    68  61  78 VRB3      29.91F
DEL MAR          N/A     67  63  85 CALM      29.94S
LA JOLLA SCRIP   N/A     67  64  89 CALM      29.89S
FALLBROOK        N/A     65  65  99 CALM      29.92S
ESCONDIDO        N/A     66  62  85 W2        29.94F
SAN MARCOS       N/A     66  62  85 CALM      29.90S
POWAY            N/A     65  61  85 NW1       29.93S

$$

EAST SAN DIEGO COUNTY

CITY           SKY/WX    TMP DP  RH WIND       PRES   REMARKS
RAMONA         CLOUDY    62  59  90 CALM      29.94F
SANTEE LAKES     N/A     65  60  86 CALM      29.93F
LA MESA          N/A     66  62  87 CALM      29.86F
JAMUL            N/A     64  60  87 CALM      29.91F
MT. LAGUNA OBS   N/A     57  31  37 NW1       29.68F
CAMPO            N/A     54  51  90 NE5       29.94S

$$

ORANGE COUNTY AND THE LOS ANGELES BASIN

CITY           SKY/WX    TMP DP  RH WIND       PRES   REMARKS
JOHN WAYNE AP  CLEAR     69  61  75 CALM      29.91S
LAKE FOREST FR   N/A     64  58  81 CALM      29.82S
SANTA ANA        N/A     65  61  88 CALM      29.86S
HUNTINGTON BCH   N/A     62  60  93 CALM      29.93S
FULLERTON      CLEAR     66  60  81 CALM      29.90S
LONG BEACH     CLEAR     67  62  84 SE3       29.91S
L.A. AP        PTCLDY    67  64  90 W6        29.90S
L.A. DOWNTOWN  CLEAR     67  61  81 CALM      29.90S

$$

THE INLAND EMPIRE

CITY           SKY/WX    TMP DP  RH WIND       PRES   REMARKS
CORONA         CLEAR     60  57  89 CALM      29.93R
CHINO          CLEAR     63  59  87 CALM      29.93S
ONTARIO        PTCLDY    65  59  81 CALM      29.92S
RIVERSIDE AP   CLEAR     65  59  81 CALM      29.93S
RIV CYN CREST    N/A     65  65  99 CALM      29.90S
MORENO VALLEY    N/A     62  60  91 CALM      29.12R
MARCH ARB      PTCLDY    61  57  88 CALM      29.94S
HORSETHIEF CYN   N/A     62  52  71 CALM      29.94S
PERRIS           N/A     64  59  85 CALM      29.90S
MENIFEE          N/A     64  61  91 SE2       29.98R
HEMET EAST       N/A     63  55  76 CALM      29.92S
FRENCH VALLEY  CLOUDY    61  59  94 SE3       29.94F
TEMECULA         N/A     64  62  91 CALM      29.90S

$$

SAN BERNARDINO AND RIVERSIDE COUNTY MOUNTAINS

CITY           SKY/WX    TMP DP  RH WIND       PRES   REMARKS
BIG BEAR AP    FAIR      41  28  60 CALM      30.16S
PINE COVE        N/A     55  30  38 CALM      29.80R

$$

SOUTHERN DESERT INCLUDING THE COACHELLA VALLEY

CITY           SKY/WX    TMP DP  RH WIND       PRES   REMARKS
PALM SPRINGS   CLEAR     80  53  39 NW7       29.83S
THOUSAND PALMS   N/A     79  54  41 NW8       29.77S
PALM DESERT      N/A     75  58  54 CALM      31.61S
THERMAL        CLEAR     70  55  59 NW5       29.76S
BLYTHE         CLEAR     77  48  35 CALM      29.80R
IMPERIAL AP    CLEAR     77  52  41 W6        29.77S
EL CENTRO NAS  PTCLDY    79  52  38 W10       29.77S
YUMA AZ        CLEAR     78  53  41 S6        29.79S

$$

UPPER DESERT

CITY           SKY/WX    TMP DP  RH WIND       PRES   REMARKS
VICTORVILLE AP CLEAR     64  45  48 SW7       29.98S
HESPERIA         N/A     63  49  61 CALM      29.99R
APPLE VALLEY     N/A     62  45  55 CALM      30.04S
PALMDALE       CLEAR     64  46  52 W3        29.97S
LANCASTER      CLEAR     64  47  53 W16       29.96S
EDWARDS AFB    CLEAR     60  41  49 SW8       29.93S
DAGGETT        PTCLDY    72  38  29 W16       29.91S
29 PALMS N     PTCLDY    75  38  26 SW8       29.95R
NEEDLES        CLEAR     80  44  27 CALM      29.82R

$$

REGIONAL REPORTS

CITY           SKY/WX    TMP DP  RH WIND       PRES   REMARKS
SANTA BARBARA  CLEAR     65  56  72 CALM      29.88F
SANDBERG       CLEAR     58  45  62 NW28G33   30.06R
MT. WILSON       N/A     55  30  38 MISG        N/A
LAS VEGAS NV   PTCLDY    78  42  27 S12       29.81F
PHOENIX AZ     CLEAR     77  54  44 E3        29.84S

$$

OFFSHORE ISLANDS

CITY           SKY/WX    TMP DP  RH WIND       PRES   REMARKS
CATALINA ARPT  PTCLDY    59  57  93 NW6       29.94F
SAN NICOLAS IS CLEAR    N/A N/A N/A NW28G36   29.92S

$$

MARINE AND OFFSHORE BUOY REPORTS

STATION/POSITION SKY/WX   TEMP    WIND        PRES    SWELL
                          AIR SEA DIR/SP/G            HT/PER/DIR
                          (F)     (DEG/KT/KT) (MB)    (FT/S/D)
TANNER BANKS               68 69  330/ 16/ 19 1013.7R   7/320/17
S CLEMENTE BASIN           68 71  310/ 10/ 12 1013.1R   5/280/17
SAN NICOLAS IS.               68                N/A     5/290/17
SO. S. ROSA ISLA           66 68  320/ 27/ 33 1012.6F   7/17
W. S. BARBARA CH           65 66  330/ 23/ 29 1012.9F   8/320/13
M. S. BARBARA CH           69     310/ 12       N/A
S. MONICA BASIN            70 70  270/  4/  6 1012.1R   5/260/ 7
S PEDRO CHANNEL               71                N/A     2/270/18
DANA POINT                    70                N/A     2/270/18
CMP PENDLETON NS              71                N/A     2/240/11
OCEANSIDE OFFSHR              72                N/A     2/260/11
TORREY PINES OTR              72                N/A     2/280/18
LA JOLLA 1                 69 71   60/  1/  3 1013.1F
MISSION BAY BUOY              72                N/A     2/240/12
SAN DIEGO BAY                 74              1013.6F
POINT LOMA SOUTH              72                N/A     3/280/18

$$



USA.gov is the U.S. government's official web portal to all federal, state and local government web resources and services.